Location: *
(38.3914°N, 75.0697°W)
Time: 09:26:14
(UTC+00:00)

FALCON 9 R/B - Pass Details

Date: 17 February 2020
Orbit: 286 x 10154 km, 34.5° (Epoch: 03 April)

Event Time Altitude Azimuth Distance (km) Brightness Sun altitude
Rises 23:59:47 0° 276° (W) 11,168 9.7 -16.4°
Reaches altitude 10° 00:11:11 10° 275° (W) 8,200 8.5 -18.6°
Maximum altitude 00:31:43 62° 202° (SSW) 1,718 3.7 -22.7°
Enters shadow 00:34:53 33° 134° (SE) 1,776 3.4 -23.3°
